Regional Weather Roundup
Issued by NWS

Home | Current Version | Previous Version | Graphics & Text | Print | Product List | Glossary On
Versions: 1 2 3 4 5 6 7 8 9 10 11 12 13 14 15 16 17 18 19 20 21 22 23 24 25 26 27 28 29 30 31 32 33 34 35 36 37 38 39 40 41 42 43 44 45 46 47 48 49
000
ASUS45 KBOU 282307
RWRCO

WEATHER ROUNDUP FOR COLORADO
NATIONAL WEATHER SERVICE DENVER/BOULDER CO
400 PM MST SUN DEC 28 2014

NOTE: "FAIR" INDICATES FEW OR NO CLOUDS BELOW 12000 FEET WITH NO
SIGNIFICANT WEATHER AND/OR OBSTRUCTIONS TO VISIBILITY.

COZ001>005-013-030-031-290000-
...NORTHWEST COLORADO...

CITY           SKY/WX    TMP DP  RH WIND       PRES   REMARKS
CRAIG          LGT SNOW  20  17  88 CALM      29.95S FOG
HAYDEN         CLOUDY    18  14  86 SE5       29.92S WCI  11
MEEKER         CLOUDY    26  12  55 S15       29.92F WCI  14
MOUNT WERNER   NOT AVBL
STEAMBOAT SPGS CLOUDY    14  12  89 CALM      29.92S VSB 3/4
WALDEN         MOCLDY    16   9  73 S8        29.85R WCI   5
$$

COZ006>008-011-290000-
...WEST CENTRAL VALLEYS...

CITY           SKY/WX    TMP DP  RH WIND       PRES   REMARKS
GRAND JUNCTION CLEAR     28  14  55 NW7       30.04F WCI  21
MONTROSE       PTCLDY    31  10  41 CALM      30.02S
EAGLE          MOCLDY    25  16  68 SW10      29.98S WCI  15
RIFLE          CLOUDY    25  13  60 VRB3      30.02F
DELTA          PTCLDY    35   8  32 CALM      30.03S
NUCLA          CLEAR     34   9  35 N5        30.05S WCI  30
$$

COZ017>023-064>068-290000-
...SOUTHWEST COLORADO...

CITY           SKY/WX    TMP DP  RH WIND       PRES   REMARKS
DURANGO        CLEAR     24  13  62 E7        30.05S WCI  16
CORTEZ         CLEAR     32  10  40 SW5       30.06F WCI  27
PAGOSA SPRINGS PTCLDY    22  11  61 CALM      30.03S
TELLURIDE      MOCLDY    26  10  51 W3        29.97F
WOLF CREEK PAS LGT SNOW   5   5 100 MISG      29.90S VSB 3/4
$$

COZ009-010-012-014-032>034-037-058>063-290000-
...CENTRAL COLORADO...

CITY           SKY/WX    TMP DP  RH WIND       PRES   REMARKS
ASPEN          LGT SNOW  16  11  80 N6        29.93S WCI   7
BUENA VISTA    MOCLDY    22   7  52 W18       29.88S WCI   8
COPPER MTN     SNOW       9   1  72 W18G24    29.79S VSB 1/2 WCI -10
BERTHOUD PASS  NOT AVBL
COTTONWOOD PAS CLOUDY    19   7  58 N5        29.84R WCI  13
GUNNISON       CLOUDY     7  -9  47 E5        30.02F WCI  -2
KREMMLING      CLOUDY    21  10  63 SW8G16    29.91R WCI  12
LEADVILLE      LGT SNOW  12   5  73 NW9G17    29.83S WCI   0
MONARCH PASS   CLOUDY     5   1  85 W43G53    29.90F FOG     WCI -22
SALIDA         MOCLDY    28   8  42 W16G24    29.98R WCI  17
SUNLIGHT       CLOUDY   N/A N/A N/A S3        29.85S
WILKERSON PASS MOCLDY    14   9  79 W6        29.83S WCI   5
$$

COZ069>075-290000-
...SAN LUIS VALLEY/SANGRE DE CRISTO MOUNTAINS...

CITY           SKY/WX    TMP DP  RH WIND       PRES   REMARKS
ALAMOSA        CLEAR     19   4  51 N13       29.96R WCI   6
LA VETA PASS   NOT AVBL
SAGUACHE       CLOUDY    12   3  67 CALM      29.97F
$$

COZ035-036-038>040-290000-
...NORTHERN COLORADO FRONT RANGE...

CITY           SKY/WX    TMP DP  RH WIND       PRES   REMARKS
DENVER INTL AP MOCLDY    33  18  53 E8        29.85R WCI  26
DMNS CITY PARK   N/A     31  15  50 E6        29.85S WCI  26
AURORA         PTCLDY    34  12  40 NW8       29.86R WCI  27
FRONT RANGE AP CLOUDY    32  23  69 NE5       29.86S WCI  27
ERIE MUNI ARPT   N/A     25  14  65 MISG      29.86S
BOULDER MUN AP CLEAR     32  14  47 N6        29.83F WCI  26
CENTENNIAL     MOCLDY    34  12  40 CALM      29.84R
BROOMFIELD     MOCLDY    36  12  38 NW20      29.84R
FORT COLLINS   CLEAR     25  12  58 N5        29.88R WCI  19
LONGMONT       CLEAR     27  14  59 E9        29.88R WCI  17
$$

COZ041-046-047-076>085-087-088-290000-
...PIKES PEAK/PALMER DIVIDE AND SOUTHERN FOOTHILLS...

CITY           SKY/WX    TMP DP  RH WIND       PRES   REMARKS
COLO. SPRINGS  PTCLDY    41   3  20 NW16      29.82R
A. F. ACADEMY  CLEAR     37   5  27 W13       29.81S
ELLICOTT       NOT AVBL
FALCON         CLEAR     37   2  23 NW20G26   29.83R
FORT CARSON    CLEAR     41   7  24 W16G22    29.81R
LIMON          CLEAR     29  15  56 SW5       29.85R WCI  24
MONUMENT HILL  CLEAR     30  12  47 N3        29.82R
TRINIDAD       CLEAR     32  10  40 CALM      29.85S
$$

COZ042>045-048>051-090-091-290000-
...NORTHEAST COLORADO...

CITY           SKY/WX    TMP DP  RH WIND       PRES   REMARKS
GREELEY ARPT   PTCLDY    16   9  73 CALM      29.88R
AKRON          PTCLDY    19  10  68 NW5       29.89R WCI  12
BURLINGTON     CLEAR     31  21  66 SE6       29.89R WCI  25
WRAY           PTCLDY    30  18  62 NE3       29.93R
STERLING       PTCLDY    19  14  79 CALM      29.91S
HOLYOKE        PTCLDY    30  19  64 CALM      29.93R
FORT MORGAN    PTCLDY    17  10  74 CALM      29.90S
$$

COZ086-089-092>099-290000-
...SOUTHEAST COLORADO...

CITY           SKY/WX    TMP DP  RH WIND       PRES   REMARKS
PUEBLO         CLEAR     45   7  21 W22G32    29.83R
LA JUNTA       CLEAR     38  21  50 E6        29.86S
LAMAR          CLEAR     38  19  46 E5        29.88R
SPRINGFIELD      N/A     41  10  28 S9        29.86R
$$


USA.gov is the U.S. government's official web portal to all federal, state and local government web resources and services.